Regional Weather Roundup
Issued by NWS Sterling, VA

Home | Current Version | Previous Version | Graphics & Text | Print | Product List | Glossary On
Versions: 1 2 3 4 5 6 7 8 9 10 11 12 13 14 15 16 17 18 19 20 21 22 23 24 25 26 27 28 29 30 31 32 33 34 35 36 37 38 39 40 41 42 43 44 45 46 47 48 49 50
000
ASUS41 KLWX 051210
RWRLWX

REGIONAL WEATHER ROUNDUP
NATIONAL WEATHER SERVICE BALTIMORE MD/WASHINGTON DC
800 AM EDT SUN JUL 05 2015

Note: "FAIR" indicates few or no clouds below 12,000 feet
with no significant weather and/or obstructions to visibility.
 TC=TEMPERATURE CELSIUS

 * =Non NWS site. Station does not report precipitation (e.g. rain,
    snow, etc.), thunder, or fog.

DCZ001-MDZ009-015-VAZ040>042-051-053>054-051300-
WASHINGTON METRO

CITY           SKY/WX    TMP DP  RH WIND       PRES   REMARKS
WASHINGTON NAT CLOUDY    73  67  81 NE5       30.14R
DULLES         FOG       66  65  96 N6        30.14R VSB 1
ANDREWS AFB    MOSUNNY   68  68 100 NE6       30.13R
FT BELVOIR     MOSUNNY   70  69  96 MISG      30.13R FOG
QUANTICO       CLOUDY    72  67  84 NE9       30.13R HAZE
COLLEGE PARK*  MOSUNNY   68  68 100 CALM      30.13R
LEESBURG*      CLOUDY    66  66 100 CALM      30.15R FOG
MANASSAS*      CLOUDY    70  70 100 NE5       30.14R FOG
GAITHERSBURG*  CLOUDY    64  63  94 CALM      30.18R VSB 3/4

$$

MDZ006>007-011-014-051300-
BALTIMORE METRO

CITY           SKY/WX    TMP DP  RH WIND       PRES   REMARKS
BWI AIRPORT    PTSUNNY   69  66  90 CALM      30.13R FOG
MD SCIENCE CTR   N/A     72  64  76 MISG      30.15R
MARTIN STATE   PTSUNNY   70  68  94 CALM      30.14R FOG
ANNAPOLIS      SUNNY     71  67  87 CALM      30.12R FOG
FORT MEADE*      N/A     64  64 100 CALM      30.16R

$$

MDZ012-015-019>023-051300-
MARYLAND EASTERN SHORE

CITY           SKY/WX    TMP DP  RH WIND       PRES   REMARKS
OCEAN CITY     CLOUDY    73  69  87 E5        30.12R
SALISBURY      MOSUNNY   72  69  90 NE3       30.12R
BAY BRIDGE AP*   N/A     72  68  88 E5        30.12R
CAMBRIDGE*     MOSUNNY   72  70  94 CALM      30.12R
EASTON*        MOSUNNY   72  72 100 CALM        N/A

$$

MDZ017>025-051300-
SOUTHERN MARYLAND

CITY           SKY/WX    TMP DP  RH WIND       PRES   REMARKS
PATUXENT RIVER PTSUNNY   73  69  87 E6        30.12R
ST INIGOES     NOT AVBL
LEONARDTOWN*   CLOUDY    70  70 100 CALM      30.13R

$$

MDZ003>005-051300-
NORTH CENTRAL MARYLAND

CITY           SKY/WX    TMP DP  RH WIND       PRES   REMARKS
FREDERICK*     FOG       66  66 100 CALM      30.17R VSB 1/2
HAGERSTOWN APT CLOUDY    67  64  90 NW3       30.15R FOG
WESTMINSTER*   CLOUDY    64  63  94 CALM      30.15R FOG

$$

MDZ501>502-051300-
WESTERN MARYLAND

CITY           SKY/WX    TMP DP  RH WIND       PRES   REMARKS
OAKLAND*       PTSUNNY   61 N/A N/A CALM      30.22R
CUMBERLAND*    PTSUNNY   64  63  94 N3        30.19S

$$

VAZ025>031-051300-
SHENANDOAH VALLEY

CITY           SKY/WX    TMP DP  RH WIND       PRES   REMARKS
WINCHESTER*    CLOUDY    68  66  94 CALM      30.15R FOG
FRONT ROYAL*   CLOUDY    66  66 100 NE3       30.14R VSB 3/4
LURAY*         FOG       70  70 100 CALM      30.15R VSB 1/2
NEW MARKET*    CLOUDY    67  67  99 CALM      30.14R VSB 3/4
STAUNTON*      FOG       69  67  94 CALM      30.18R VSB 1/4
WAYNESBORO*    CLOUDY    65  65  98 CALM      30.17R

$$

WVZ021-048>050-054>055-051300-
EASTERN WEST VIRGINIA PANHANDLE

CITY           SKY/WX    TMP DP  RH WIND       PRES   REMARKS
MARTINSBURG    CLOUDY    66  64  93 CALM      30.15S FOG
PETERSBURG*    FOG       63  61  93 CALM      30.17R VSB 1

$$

VAZ036>039-050-051300-
CENTRAL FOOTHILLS

CITY           SKY/WX    TMP DP  RH WIND       PRES   REMARKS
CHARLOTTESVILL FOG       68  67  96 NE3       30.13R VSB 1/2
CULPEPER*      CLOUDY    67  67 100 CALM      30.14R FOG
ORANGE*        FOG       70  68  94 CALM      30.14R VSB 1/4
GORDONSVILLE*  FOG       68  68 100 CALM      30.13R VSB 1/2
WARRENTON*     CLOUDY    68  68 100 NE5       30.13R FOG

$$

VAZ055>057-051300-
NORTH AND CENTRAL PIEDMONT

CITY           SKY/WX    TMP DP  RH WIND       PRES   REMARKS
FREDERICKSBRG* CLOUDY    73  73 100 NE5       30.12R FOG
STAFFORD*      CLOUDY    70  68  95 NE6       30.17R FOG

$$

NCZ024-NYZ072-PAZ021-071-VAZ022-071-051300-
OTHER REGIONAL OBSERVATIONS

CITY           SKY/WX    TMP DP  RH WIND       PRES   REMARKS
NEW YORK CITY  MOSUNNY   70  59  68 NW5       30.13R
PHILADELPHIA   PTSUNNY   71  62  73 CALM      30.13R
PITTSBURGH     CLOUDY    60  56  86 CALM      30.15R
ROANOKE        CLOUDY    70  66  87 N3        30.16R
RICHMOND       FOG       70  69  97 E3        30.12R VSB 1
RALEIGH        MOSUNNY   75  68  78 SW8       30.12R

$$

ANZ530>537-051300-
MARINE OBSERVATIONS

STATION/POSITION TIME  TEMP    WIND        PRES
                       AIR SEA DIR/SP/G
                 (UTC) (F)     (DEG/KT/KT) (MB)
THOMAS PT LIGHT  1200   71 76   50/  5/  6 1020.6R
BALT KEY BRIDGE  1100   69      10/  6/  7 1019.2R
COVE POINT       1100   72     120/  6/  7 1019.9R
LEWISETTA        1100   73 79   30/  4/  5 1018.9R
SOLOMONS ISLAND  1100      79                N/A
PINEY POINT      1100           70/  2/  3   N/A

$$




USA.gov is the U.S. government's official web portal to all federal, state and local government web resources and services.